IK4PKL-13 Weather Reports


time (UTC)temp
F
wind
direction
speed
knots
gust
knots
rain 1hr
in
rain 24hr
in
rain mn
in
humidity
%
barometer
mb
20260508035547 54 190 0.9 1.7 0.00 0.00 0.00 92 1016.9
20260508034544 53 153 0.9 0.9 0.00 0.00 0.00 92 1016.8
20260508033537 54 155 0.0 1.7 0.00 0.00 0.00 92 1016.9
20260508032546 53 151 0.0 0.9 0.00 0.00 0.00 93 1017.0
20260508031554 53 156 0.9 1.7 0.00 0.00 0.00 92 1017.0
20260508030544 53 169 0.9 1.7 0.00 0.00 0.00 92 1016.9
20260508025533 54 158 0.0 0.9 0.00 0.00 0.00 93 1016.7
20260508024528 54 0.0 0.0 0.00 0.00 0.00 93 1016.9
20260508023549 54 146 0.0 0.9 0.00 0.00 0.00 93 1016.9
20260508022526 53 0.0 0.0 0.00 0.00 0.00 93 1017.0
20260508021551 53 161 0.0 0.9 0.00 0.00 0.00 92 1017.0
20260508020543 53 148 0.0 0.9 0.00 0.00 0.00 92 1017.0
20260508015535 54 144 0.0 0.9 0.00 0.00 0.00 92 1017.1
20260508014527 54 0.0 0.0 0.00 0.00 0.00 92 1017.0
20260508013553 54 0.0 0.0 0.00 0.00 0.00 92 1017.0
20260508012539 54 0.0 0.0 0.00 0.00 0.00 92 1017.1
20260508011536 55 0.0 0.0 0.00 0.00 0.00 92 1017.2
20260508010546 55 148 0.0 0.9 0.00 0.00 0.00 92 1017.1
20260508005612 55 163 0.0 0.9 0.00 0.00 0.00 92 1017.0
20260508004527 55 152 0.0 0.9 0.00 0.00 0.00 91 1017.0
20260508003549 55 138 0.0 0.9 0.00 0.00 0.00 91 1017.1
20260508002528 56 157 0.9 1.7 0.00 0.00 0.00 90 1017.2
20260508001548 56 170 0.9 1.7 0.00 0.00 0.00 89 1017.3
20260508000544 57 151 0.0 0.9 0.00 0.00 0.00 88 1017.3
20260507235536 57 0.0 0.0 0.00 0.00 0.00 88 1017.5
20260507234554 58 143 0.0 0.9 0.00 0.00 0.00 88 1017.4
20260507233536 58 0.0 0.0 0.00 0.00 0.00 88 1017.3
20260507232537 58 136 0.0 0.9 0.00 0.00 0.00 88 1017.3
20260507231547 58 143 0.0 0.9 0.00 0.00 0.00 87 1017.4
20260507230530 58 118 0.0 0.9 0.00 0.00 0.00 87 1017.5
20260507224539 58 128 0.0 1.7 0.00 0.00 0.00 86 1017.6
20260507223546 59 118 0.9 1.7 0.00 0.00 0.00 86 1017.6
20260507222539 59 111 0.0 0.9 0.00 0.00 0.00 86 1017.3
20260507221530 59 115 0.9 1.7 0.00 0.00 0.00 86 1017.3
20260507220544 59 118 1.7 2.6 0.00 0.00 0.00 86 1017.3
20260507215533 59 111 0.9 2.6 0.00 0.00 0.00 86 1017.3
20260507214523 59 112 1.7 2.6 0.00 0.00 0.00 85 1017.2
20260507213517 59 116 0.9 2.6 0.00 0.00 0.00 85 1017.2
20260507212539 60 117 1.7 2.6 0.00 0.00 0.00 85 1017.2
20260507211531 60 125 1.7 3.5 0.00 0.00 0.00 85 1017.2
20260507210523 61 118 0.9 2.6 0.00 0.00 0.00 83 1017.1
20260507205547 61 113 0.0 0.9 0.00 0.00 0.00 83 1017.1
20260507204545 61 130 0.0 1.7 0.00 0.00 0.00 83 1017.2
20260507203546 61 0.0 0.9 0.00 0.00 0.00 82 1017.4
20260507202538 62 149 0.9 1.7 0.00 0.00 0.00 81 1017.4
20260507201531 62 0.0 0.0 0.00 0.00 0.00 81 1017.4
20260507200540 62 0.0 0.0 0.00 0.00 0.00 80 1017.3
20260507195530 63 0.0 0.9 0.00 0.00 0.00 78 1017.4
20260507194525 63 125 0.9 1.7 0.00 0.00 0.00 77 1017.4
20260507193547 63 0.0 0.0 0.00 0.00 0.00 78 1017.3
20260507192538 63 139 0.0 0.9 0.00 0.00 0.00 77 1017.2
20260507191531 64 119 0.9 2.6 0.00 0.00 0.00 75 1017.1
20260507190522 64 114 0.9 2.6 0.00 0.00 0.00 76 1017.0
20260507185550 64 143 0.0 0.9 0.00 0.00 0.00 76 1017.0
20260507184541 64 124 0.0 0.9 0.00 0.00 0.00 76 1016.9
20260507183548 65 114 0.0 0.9 0.00 0.00 0.00 76 1016.7
20260507182540 65 132 0.9 1.7 0.00 0.00 0.00 75 1016.8
20260507181547 66 133 0.9 2.6 0.00 0.00 0.00 75 1016.7
20260507180539 66 120 1.7 3.5 0.00 0.00 0.00 74 1016.4
20260507175531 67 131 0.9 6.1 0.00 0.00 0.00 73 1016.3
20260507174543 67 116 1.7 7.8 0.00 0.00 0.00 74 1016.3
20260507173518 67 103 3.5 7.0 0.00 0.00 0.00 75 1016.2
20260507172539 67 103 3.5 8.7 0.00 0.00 0.00 77 1016.2
20260507171531 67 103 2.6 7.8 0.00 0.00 0.00 77 1016.2
20260507170524 67 105 1.7 7.8 0.00 0.00 0.00 79 1016.1
20260507165549 68 99 2.6 8.7 0.00 0.00 0.00 77 1016.2
20260507164619 68 111 3.5 7.0 0.00 0.00 0.00 75 1016.2
20260507163531 68 107 2.6 7.0 0.00 0.00 0.00 72 1016.1
20260507162522 68 101 2.6 6.1 0.00 0.00 0.00 67 1016.2
20260507161547 68 65 2.6 8.7 0.00 0.00 0.00 64 1016.3
20260507160522 68 59 2.6 7.0 0.00 0.00 0.00 59 1016.2
20260507155547 69 78 1.7 7.0 0.00 0.00 0.00 59 1016.3
20260507154539 68 89 2.6 7.0 0.00 0.00 0.00 60 1016.4
20260507153531 68 53 4.3 9.6 0.00 0.00 0.00 60 1016.4
20260507152522 68 61 3.5 7.8 0.00 0.00 0.00 57 1016.4
20260507151547 69 83 2.6 11.3 0.00 0.00 0.00 53 1016.4
20260507150539 69 83 2.6 7.8 0.00 0.00 0.00 51 1016.3
20260507145532 69 64 4.3 9.6 0.00 0.00 0.00 51 1016.4
20260507144522 68 65 3.5 8.7 0.00 0.00 0.00 55 1016.4
20260507143548 69 54 3.5 7.0 0.00 0.00 0.00 61 1016.5
20260507142538 68 55 2.6 7.8 0.00 0.00 0.00 58 1016.6
20260507141531 69 60 3.5 9.6 0.00 0.00 0.00 55 1016.5
20260507140524 69 46 4.3 9.6 0.00 0.00 0.00 56 1016.6
20260507135547 68 86 3.5 7.8 0.00 0.00 0.00 58 1016.5
20260507134538 68 54 3.5 7.8 0.00 0.00 0.00 55 1016.6
20260507133531 68 43 3.5 7.8 0.00 0.00 0.00 57 1016.6
20260507132522 69 41 3.5 9.6 0.00 0.00 0.00 56 1016.5
20260507131547 69 52 3.5 9.6 0.00 0.00 0.00 57 1016.6
20260507130540 68 24 5.2 9.6 0.00 0.00 0.00 60 1016.7
20260507125531 69 31 4.3 8.7 0.00 0.00 0.00 58 1016.5
20260507124524 68 24 5.2 11.3 0.00 0.00 0.00 59 1016.5
20260507123546 68 29 5.2 11.3 0.00 0.00 0.00 59 1016.6
20260507122538 69 31 4.3 8.7 0.00 0.00 0.00 56 1016.7
20260507121530 70 43 3.5 8.7 0.00 0.00 0.00 54 1016.6
20260507120602 70 50 3.5 7.8 0.00 0.00 0.00 51 1016.7
20260507115546 69 53 3.5 7.0 0.00 0.00 0.00 51 1016.7
20260507114538 68 53 3.5 11.3 0.00 0.00 0.00 54 1016.8
20260507113531 68 35 4.3 9.6 0.00 0.00 0.00 53 1016.8
20260507112523 68 55 4.3 7.8 0.00 0.00 0.00 56 1016.9
20260507111546 68 27 6.1 8.7 0.00 0.00 0.00 54 1016.9
20260507110538 68 52 3.5 8.7 0.00 0.00 0.00 55 1016.9
20260507105546 69 43 3.5 11.3 0.00 0.00 0.00 58 1017.0
20260507104538 69 17 3.5 8.7 0.00 0.00 0.00 54 1016.9
20260507103532 69 33 5.2 9.6 0.00 0.00 0.00 57 1016.9
20260507102543 69 28 5.2 11.3 0.00 0.00 0.00 56 1017.0
20260507101547 70 332 3.5 7.0 0.00 0.00 0.00 54 1016.8
20260507100559 69 41 3.5 6.1 0.00 0.00 0.00 55 1016.9
20260507095531 69 343 3.5 7.8 0.00 0.00 0.00 55 1017.0
20260507094523 69 24 3.5 7.0 0.00 0.00 0.00 56 1017.0
20260507093547 68 346 4.3 7.8 0.00 0.00 0.00 57 1017.0
20260507092600 68 352 2.6 6.1 0.00 0.00 0.00 58 1016.9
20260507091530 68 19 3.5 7.0 0.00 0.00 0.00 59 1016.9
20260507090524 68 20 2.6 7.8 0.00 0.00 0.00 60 1016.9
20260507085547 67 41 2.6 7.0 0.00 0.00 0.00 61 1016.9
20260507084558 67 10 3.5 8.7 0.00 0.00 0.00 64 1016.9
20260507083552 67 22 4.3 7.8 0.00 0.00 0.00 66 1016.8
20260507082522 67 20 3.5 7.8 0.00 0.00 0.00 68 1016.6
20260507081546 69 36 2.6 7.0 0.00 0.00 0.00 56 1016.4
20260507080539 71 157 0.9 2.6 0.00 0.00 0.00 53 1016.3
20260507075552 70 179 1.7 3.5 0.00 0.00 0.00 56 1016.3
20260507074523 70 203 0.9 3.5 0.00 0.00 0.00 56 1016.3
20260507073547 69 238 1.7 3.5 0.00 0.00 0.00 57 1016.3
20260507071531 69 50 0.9 3.5 0.00 0.01 0.00 61 1016.4
20260507070524 69 113 0.9 1.7 0.00 0.01 0.00 62 1016.4
20260507065531 68 126 0.9 2.6 0.00 0.01 0.00 65 1016.3
20260507064523 67 86 0.9 1.7 0.00 0.01 0.00 69 1016.3
20260507063546 65 106 0.9 2.6 0.00 0.01 0.00 73 1016.4
20260507062538 63 89 0.9 2.6 0.00 0.01 0.00 77 1016.4
20260507061532 64 51 1.7 2.6 0.00 0.01 0.00 77 1016.4
20260507060523 64 132 0.0 0.9 0.00 0.01 0.00 77 1016.3
20260507055546 63 97 0.0 2.6 0.00 0.01 0.00 81 1016.3
20260507054538 61 122 0.9 1.7 0.00 0.01 0.00 84 1016.1
20260507053530 59 186 1.7 3.5 0.00 0.01 0.00 88 1016.0
20260507052522 59 181 0.0 1.7 0.00 0.01 0.00 88 1016.0
20260507051606 59 0.0 0.0 0.00 0.01 0.00 88 1015.9
20260507050539 59 0.0 0.0 0.00 0.01 0.00 88 1016.0
20260507045517 60 91 0.0 0.9 0.00 0.01 0.00 88 1015.6
20260507044524 60 187 0.9 0.9 0.00 0.02 0.00 88 1015.5
20260507043606 60 125 0.0 0.9 0.00 0.03 0.00 88 1015.3
20260507042538 60 130 0.9 2.6 0.00 0.04 0.00 88 1015.3
20260507041547 59 130 0.9 2.6 0.00 0.05 0.00 88 1015.3
20260507040600 59 135 0.9 2.6 0.00 0.05 0.00 88 1015.1